Temperature
17 17 17 17 17 17 17 17 17 17 17 17 17 17 17 17 17 17 17 16 16 16 16 16 16 15 15 15 15 15 15 15 15 15 15 14 14 14
17 17 17 17 17 17 17 17 17 17 17 17 17 17 17 17 17 17 16 16 16 16 16 16 16 16 15 15 15 15 15 15 15 14 14 14 14 14
17 17 17 17 17 16 16 16 16 17 17 17 17 17 17 17 17 17 16 16 16 16 16 16 16 16 15 15 15 15 15 15 14 14 14 14 14 14
17 16 16 16 16 16 16 16 16 16 16 16 17 17 16 16 16 16 16 16 16 16 16 16 16 15 15 15 15 15 15 15 14 14 14 14 14 14
16 16 16 16 16 16 16 16 16 16 16 16 16 16 16 16 16 16 16 16 16 16 16 16 15 15 15 15 15 15 15 14 14 14 14 14 14 13
16 16 16 16 16 16 16 16 16 16 16 16 16 16 16 16 16 16 16 15 15 15 15 15 15 15 15 15 15 15 14 14 14 14 14 13 13 13
16 16 16 15 15 15 15 15 15 15 15 15 15 15 15 15 15 15 15 15 15 15 15 15 15 15 15 14 14 14 14 14 14 14 13 13 13 13
16 15 15 15 15 15 15 15 15 15 15 15 15 15 15 15 15 14 14 14 14 14 14 14 14 14 14 14 14 14 13 13 13 13 13 13 13 13
15 15 15 15 15 15 15 15 15 15 15 14 14 14 14 14 14 14 14 13 13 13 13 13 13 13 13 13 13 13 13 13 13 13 13 12 12 12
15 15 15 15 15 14 14 14 14 14 14 14 14 14 13 13 13 13 13 13 13 13 12 12 13 13 13 13 12 12 12 12 12 12 12 12 12 12
14 14 14 14 14 14 14 14 14 14 14 13 13 13 13 13 12 12 12 12 12 12 12 12 12 12 12 12 12 12 11 11 11 11 11 11 11 11
14 14 14 13 13 13 13 13 13 13 13 13 13 12 12 12 12 12 11 11 11 11 11 11 11 11 11 11 11 11 11 11 11 11 11 11 11 11
13 13 13 13 13 13 13 13 13 12 12 12 12 12 12 12 11 11 11 11 10 10 10 10 10 10 10 10 10 10 10 10 10 10 10 10 10 10
13 12 12 12 12 12 12 12 12 12 12 11 11 11 11 11 11 11 10 10 10 10 10 9 9 9 9 9 9 10 10 10 10 10 10 10 10 10
12 12 12 12 11 11 11 11 11 11 11 11 10 10 10 10 10 10 10 10 10 10 9 9 9 9 8 8 8 9 9 9 9 9 9 9 9 9
11 11 11 11 11 11 11 11 10 10 10 10 10 10 9 9 9 9 9 9 9 9 9 9 8 8 8 8 8 8 8 8 8 8 8 8 8 9
10 10 10 10 10 10 10 10 10 9 9 9 9 9 8 8 8 8 8 8 8 8 8 8 8 8 8 7 8 8 8 8 8 8 8 8 8 8
10 10 9 9 9 9 9 9 8 8 8 8 8 8 8 8 8 7 7 7 7 7 7 7 7 7 7 7 7 7 7 7 7 7 7 7 8 8
9 9 8 8 8 8 8 8 8 7 7 7 7 7 7 7 7 7 6 6 6 6 6 6 6 6 6 6 6 7 6 6 7 7 7 7 7 8
8 8 7 7 7 7 7 7 7 7 6 6 6 6 6 6 6 6 6 6 5 5 6 6 6 5 5 5 5 6 6 6 6 6 6 6 7 7
7 7 7 6 6 6 6 6 6 6 6 6 5 5 5 5 5 5 5 5 5 5 5 5 5 5 5 5 5 5 6 6 6 6 6 6 6 7
6 6 6 6 6 5 5 5 5 5 5 5 5 5 5 5 5 5 5 4 4 4 4 4 4 5 5 4 5 5 5 6 6 6 6 6 5 6
6 6 5 5 5 5 5 4 4 4 4 4 4 4 4 4 4 4 4 4 4 4 4 4 4 4 4 4 4 5 5 5 5 6 6 6 6 6
Wind_Speed
5 5 3 3 3 3 3 4 5 3 4 4 3 4 7 10 13 14 15 18 19 19 19 19 19 19 19 19 18 18 17 17 16 16 15 15 15 14
4 5 4 3 2 2 3 3 4 5 4 4 4 4 4 6 11 13 15 16 18 19 19 20 20 20 20 20 20 20 19 19 18 18 18 17 17 16
4 5 5 4 3 2 2 3 3 4 4 4 3 2 2 3 4 9 12 12 13 18 20 20 21 21 20 20 20 20 20 20 20 20 19 19 18 18
5 5 5 4 4 3 2 3 3 4 4 4 3 2 3 4 3 4 6 8 11 14 17 19 20 20 20 20 21 21 21 21 21 21 21 20 20 19
6 5 5 4 4 3 3 3 2 2 3 3 3 2 2 2 1 3 3 3 7 10 12 14 16 17 18 19 20 21 21 22 22 22 22 22 21 21
4 5 5 5 6 5 4 4 3 2 2 2 3 2 2 2 1 2 3 3 4 5 7 8 10 12 15 17 18 19 21 21 22 22 22 22 22 22
4 4 4 5 7 6 4 4 4 3 2 2 2 2 2 1 2 3 3 4 4 3 3 4 4 6 9 13 16 18 19 19 20 20 21 22 22 23
5 4 4 5 6 7 7 7 7 5 5 3 3 3 4 4 3 3 3 2 4 3 2 4 3 5 6 10 13 15 16 17 18 18 19 20 21 22
5 5 4 4 4 4 5 6 6 7 7 5 5 5 4 5 3 3 3 4 5 4 1 4 4 5 7 11 14 15 15 16 17 17 18 18 19 20
4 4 4 3 2 3 3 3 4 4 5 4 5 6 5 4 4 4 4 4 4 4 3 4 5 5 6 8 12 12 12 13 15 15 16 17 18 18
2 2 2 2 3 3 2 3 4 4 4 5 6 6 6 5 3 1 1 1 4 4 3 3 4 4 4 5 9 11 12 13 14 15 16 16 17 16
0 0 1 1 1 1 2 2 4 4 2 2 3 4 4 4 5 4 4 3 3 4 3 2 3 2 4 4 4 7 9 12 14 15 16 16 16 9
1 1 1 1 1 1 1 2 4 2 1 2 2 3 2 2 2 3 4 4 5 5 4 3 3 3 4 4 4 4 5 6 8 10 13 15 15 10
1 1 1 3 3 2 1 1 2 1 1 1 2 2 3 3 3 3 4 5 6 7 7 4 4 4 4 5 5 4 5 5 5 6 6 11 13 14
2 3 3 3 4 3 3 2 2 1 1 1 2 3 3 4 3 3 3 4 5 7 7 5 4 5 5 6 5 5 5 5 5 5 5 6 6 6
3 4 5 6 5 4 4 3 2 1 1 1 3 3 3 3 3 3 3 3 3 4 5 6 5 4 5 6 6 7 6 5 4 6 6 6 6 7
3 4 5 5 5 4 4 4 3 3 2 2 2 3 3 3 3 3 2 2 3 4 5 5 5 5 6 6 6 7 6 6 6 6 5 7 7 7
6 5 4 4 4 3 3 3 3 3 3 2 2 3 3 4 4 4 3 3 4 5 5 5 4 5 4 5 7 6 5 5 6 6 5 7 9 8
7 5 4 4 3 3 3 3 3 3 3 3 3 3 4 4 4 4 4 4 4 5 5 5 4 3 6 8 6 6 6 7 7 7 7 7 9 9
5 4 4 3 3 3 3 3 3 4 3 3 3 4 4 4 4 5 4 5 5 6 6 5 4 4 5 7 6 7 9 8 7 8 9 8 8 10
4 3 3 3 3 4 3 3 4 4 4 4 4 4 4 4 4 5 5 7 6 5 7 7 7 8 6 4 6 6 7 10 11 9 8 8 8 7
3 3 3 3 3 3 4 4 4 4 4 4 4 5 5 4 5 6 6 6 6 6 7 8 7 6 4 5 8 9 9 9 11 14 14 11 6 5
4 4 3 3 3 3 3 4 4 4 4 5 5 5 5 5 5 6 6 6 6 7 8 8 6 5 5 6 8 8 10 10 8 8 8 10 13 15
Wind_Direction
194 190 192 203 193 190 177 172 167 202 253 260 260 241 222 218 220 215 219 224 225 229 233 236 239 241 243 244 245 246 247 249 250 252 255 257 258 259
195 190 203 207 199 191 184 181 172 176 221 247 242 250 224 224 222 213 219 225 228 231 235 239 243 245 246 247 248 248 249 251 252 254 255 255 256 257
204 200 217 210 197 200 183 178 179 168 205 256 251 252 215 226 217 221 228 229 236 237 239 243 246 248 249 250 251 252 253 254 255 255 255 255 255 255
205 205 222 215 206 206 190 194 193 186 186 229 251 243 233 231 225 233 238 239 238 243 243 247 250 252 253 253 254 255 256 257 257 257 256 256 256 255
200 200 212 204 213 211 203 205 213 204 185 198 235 241 250 242 225 255 258 262 257 256 252 253 255 258 258 259 259 259 259 259 259 259 258 257 256 256
201 201 202 200 208 208 209 211 208 207 200 200 228 243 247 255 185 236 272 268 271 272 266 262 264 266 267 267 266 265 264 263 262 261 260 260 259 258
202 208 214 217 218 210 208 203 197 198 202 207 227 238 245 237 228 226 242 268 277 255 267 275 277 277 277 274 269 268 267 265 264 264 263 261 260 259
210 217 227 230 231 224 221 203 192 196 203 204 221 233 246 236 234 228 230 258 280 266 239 274 259 265 271 271 272 272 268 268 267 266 265 265 264 262
213 217 230 234 225 230 233 227 219 214 199 192 211 228 233 226 218 236 233 233 242 248 221 269 266 265 270 275 276 273 274 274 274 273 271 269 267 266
207 204 210 235 230 216 225 235 240 236 222 213 219 232 234 226 214 222 233 250 266 262 210 250 262 261 272 274 273 272 278 282 282 280 278 276 273 270
212 206 199 221 246 211 205 238 261 271 257 244 245 248 250 251 229 210 249 257 280 278 225 224 262 275 273 267 270 273 279 283 283 283 282 280 278 277
188 202 186 208 262 218 208 229 259 271 291 299 280 280 274 276 252 217 220 235 256 273 261 222 254 272 287 274 270 278 282 284 284 282 281 282 283 279
80 351 323 350 354 320 224 220 243 261 289 285 287 296 302 294 279 248 222 217 233 251 255 229 250 250 247 276 281 269 266 273 280 278 277 278 279 269
86 350 331 354 4 10 10 303 298 322 357 337 314 305 302 296 291 282 263 249 241 246 262 250 248 255 262 272 275 280 280 274 269 269 275 282 280 273
43 26 30 32 26 23 15 358 8 33 20 323 300 293 286 287 296 303 300 287 281 277 278 267 254 262 256 263 268 269 282 281 266 265 272 272 272 272
38 26 34 39 37 23 13 14 20 18 355 295 293 293 300 311 312 307 301 309 309 299 294 289 271 261 268 268 270 276 272 272 285 280 277 278 275 269
53 47 41 33 29 25 23 21 19 19 6 339 324 318 318 320 312 310 297 303 294 293 301 308 306 288 257 254 269 270 272 275 275 279 282 287 282 273
69 58 45 36 32 23 15 8 6 357 345 340 329 319 315 311 308 310 305 297 291 290 291 294 309 315 309 280 240 256 269 275 280 279 270 281 289 284
65 54 42 28 20 15 11 6 357 348 347 344 331 321 317 315 313 307 306 303 297 294 293 292 292 288 298 300 284 248 264 283 284 285 277 270 279 283
51 47 33 17 8 4 1 355 344 341 341 331 321 318 316 314 313 309 305 301 301 302 302 301 289 276 274 282 285 284 272 269 278 284 287 283 276 273
32 24 13 7 2 356 352 348 341 336 336 335 330 325 320 313 306 303 302 302 301 301 300 297 287 283 280 279 285 285 283 274 270 273 282 287 291 290
15 8 4 6 1 351 347 347 347 345 344 338 327 323 319 314 307 306 304 304 301 299 298 296 294 294 283 282 288 290 294 299 295 286 270 252 258 270
16 12 11 11 6 359 354 352 350 342 337 331 325 321 319 315 308 302 301 299 298 299 302 304 306 297 290 283 286 291 294 299 304 309 302 287 272 264
Height
1548 1550 1551 1552 1553 1554 1554 1555 1556 1555 1555 1556 1556 1557 1558 1558 1559 1559 1559 1559 1559 1559 1559 1559 1558 1558 1558 1557 1557 1557 1556 1556 1555 1554 1554 1553 1553 1552
1545 1546 1547 1548 1549 1550 1551 1552 1552 1553 1552 1552 1553 1554 1554 1555 1555 1555 1556 1556 1556 1556 1556 1555 1555 1554 1554 1554 1553 1553 1552 1552 1551 1550 1549 1548 1548 1547
1541 1542 1543 1545 1546 1547 1548 1548 1549 1549 1549 1549 1550 1550 1550 1551 1551 1552 1552 1552 1552 1552 1552 1551 1551 1550 1550 1550 1549 1548 1548 1547 1546 1545 1545 1544 1543 1542
1538 1539 1540 1541 1542 1543 1544 1544 1545 1545 1546 1545 1546 1546 1547 1547 1547 1548 1548 1548 1548 1547 1547 1547 1546 1546 1545 1545 1544 1543 1542 1541 1541 1540 1539 1538 1537 1536
1534 1535 1536 1537 1538 1539 1540 1541 1541 1541 1541 1542 1542 1542 1542 1543 1543 1543 1543 1543 1543 1543 1542 1542 1541 1541 1540 1539 1539 1538 1537 1535 1534 1533 1533 1532 1531 1530
1531 1532 1533 1533 1534 1535 1536 1536 1537 1537 1537 1537 1537 1537 1538 1538 1538 1538 1538 1538 1538 1538 1537 1537 1536 1535 1535 1534 1533 1532 1530 1529 1528 1527 1526 1525 1524 1523
1527 1528 1529 1530 1530 1531 1532 1532 1533 1533 1533 1533 1533 1533 1533 1533 1533 1533 1533 1533 1532 1532 1531 1531 1530 1529 1528 1527 1526 1525 1524 1522 1521 1520 1519 1518 1517 1516
1523 1524 1525 1526 1527 1527 1528 1528 1528 1529 1528 1529 1528 1528 1528 1529 1529 1528 1528 1527 1526 1527 1525 1524 1524 1522 1522 1521 1519 1518 1517 1516 1514 1513 1512 1510 1509 1508
1520 1521 1521 1522 1523 1523 1524 1524 1524 1524 1524 1524 1524 1524 1524 1524 1524 1523 1522 1522 1520 1520 1519 1517 1517 1516 1515 1514 1512 1511 1510 1508 1507 1505 1504 1502 1501 1500
1516 1517 1518 1518 1519 1520 1520 1519 1519 1519 1519 1519 1519 1519 1519 1519 1518 1518 1517 1516 1515 1515 1513 1511 1510 1508 1507 1506 1505 1503 1502 1500 1499 1497 1496 1494 1493 1492
1512 1513 1514 1514 1515 1515 1516 1515 1515 1515 1515 1515 1515 1514 1514 1514 1513 1512 1511 1510 1508 1508 1507 1505 1503 1501 1499 1498 1497 1496 1494 1492 1491 1489 1487 1486 1485 1483
1509 1510 1510 1511 1511 1511 1511 1511 1511 1511 1511 1510 1510 1510 1509 1508 1508 1507 1506 1505 1503 1502 1501 1500 1497 1495 1491 1490 1489 1488 1486 1484 1483 1481 1480 1478 1477 1475
1506 1506 1507 1507 1507 1507 1507 1507 1507 1507 1506 1506 1505 1505 1504 1503 1503 1502 1501 1500 1499 1497 1496 1494 1491 1489 1487 1483 1482 1481 1480 1477 1475 1474 1472 1470 1469 1467
1502 1503 1504 1503 1504 1504 1504 1504 1504 1503 1503 1502 1501 1500 1500 1499 1498 1497 1496 1495 1494 1492 1491 1489 1486 1484 1481 1477 1475 1473 1472 1471 1469 1466 1464 1462 1461 1460
1501 1501 1501 1501 1501 1501 1501 1501 1500 1500 1499 1499 1498 1497 1496 1495 1494 1492 1491 1489 1488 1487 1485 1483 1481 1478 1475 1472 1469 1467 1465 1463 1462 1459 1457 1454 1452 1451
1500 1500 1500 1500 1499 1499 1499 1498 1497 1496 1496 1495 1494 1493 1492 1490 1489 1487 1485 1483 1481 1480 1479 1477 1475 1472 1469 1467 1464 1461 1459 1457 1454 1452 1449 1447 1445 1443
1498 1498 1498 1497 1497 1496 1496 1495 1495 1494 1493 1492 1490 1489 1487 1485 1484 1482 1480 1478 1476 1473 1471 1470 1468 1466 1463 1461 1458 1455 1453 1450 1448 1445 1442 1439 1437 1436
1498 1497 1496 1496 1495 1495 1494 1493 1492 1490 1489 1488 1487 1485 1484 1482 1479 1477 1475 1473 1471 1468 1466 1463 1461 1458 1456 1454 1453 1449 1446 1443 1441 1439 1436 1432 1428 1428
1497 1497 1496 1495 1494 1493 1492 1491 1490 1488 1487 1486 1484 1482 1480 1478 1475 1473 1471 1468 1466 1463 1461 1459 1456 1453 1450 1446 1444 1444 1440 1437 1434 1431 1429 1425 1422 1419
1498 1497 1496 1495 1494 1493 1491 1489 1488 1486 1484 1482 1480 1478 1476 1473 1471 1469 1466 1464 1461 1458 1456 1454 1451 1449 1446 1442 1438 1435 1435 1432 1428 1424 1421 1418 1415 1413
1498 1497 1496 1495 1493 1492 1490 1488 1485 1483 1481 1479 1476 1474 1472 1469 1467 1465 1462 1459 1457 1454 1451 1448 1446 1444 1441 1437 1434 1430 1428 1426 1423 1419 1415 1412 1408 1405
1499 1497 1496 1494 1492 1490 1487 1485 1483 1480 1478 1475 1473 1470 1468 1465 1463 1460 1457 1455 1452 1450 1447 1444 1441 1438 1436 1433 1428 1425 1422 1419 1417 1414 1411 1408 1404 1399
1498 1496 1495 1493 1490 1488 1485 1483 1480 1477 1475 1472 1469 1466 1464 1461 1459 1456 1453 1451 1448 1446 1443 1439 1436 1434 1431 1428 1424 1420 1417 1414 1410 1407 1405 1403 1400 1396